Volver al catálogo

SRH3

ActivoCienciaSSO
NORAD 52887·PAYLOAD·🇩🇪 Germany

Lanzado Jun 18, 2022 desde Vandenberg Space Force Base

Loading…

Próximos Pases (próximas 24 horas)

TLE

ObsoletoSource: Mike McCants

Época: Feb 17, 2026, 04:55 UTC

1 52887U 22063A   26048.20502596 0.00000000  00000-0  00000-0 0    05
2 52887  98.3916  57.2595 0002074   0.7146 359.2852 14.43696703    09

Sigue SRH3 en tiempo real con AllMySat

Download on the App Store